TimeEDT,TemperatureF,Dew PointF,Humidity,Sea Level PressureIn,VisibilityMPH,Wind Direction,Wind SpeedMPH,Gust SpeedMPH,PrecipitationIn,Events,Conditions,WindDirDegrees,DateUTC
12:15 AM,41.4,36.1,82,30.24,10.0,NNW,3.5,-,N/A,,Overcast,330,2012-10-28 04:15:00
12:35 AM,41.0,36.1,83,30.24,10.0,NNW,3.5,-,N/A,,Overcast,340,2012-10-28 04:35:00
12:55 AM,40.5,35.8,83,30.24,10.0,Calm,Calm,-,N/A,,Mostly Cloudy,0,2012-10-28 04:55:00
1:15 AM,40.6,35.8,83,30.24,10.0,Calm,Calm,-,N/A,,Mostly Cloudy,0,2012-10-28 05:15:00
1:35 AM,40.1,36.5,87,30.23,10.0,Calm,Calm,-,N/A,,Overcast,0,2012-10-28 05:35:00
1:55 AM,40.6,36.5,85,30.24,10.0,North,3.5,-,N/A,,Overcast,360,2012-10-28 05:55:00
2:15 AM,40.1,35.1,82,30.24,10.0,North,6.9,-,N/A,,Mostly Cloudy,360,2012-10-28 06:15:00
2:35 AM,38.8,33.8,82,30.23,10.0,North,6.9,-,N/A,,Scattered Clouds,360,2012-10-28 06:35:00
2:55 AM,37.8,33.1,83,30.24,10.0,North,4.6,-,N/A,,Clear,360,2012-10-28 06:55:00
3:15 AM,37.4,32.9,84,30.24,10.0,North,4.6,-,N/A,,Clear,350,2012-10-28 07:15:00
3:35 AM,37.4,32.0,81,30.24,10.0,NNW,5.8,-,N/A,,Clear,340,2012-10-28 07:35:00
3:55 AM,37.4,31.5,79,30.23,10.0,North,6.9,-,N/A,,Clear,350,2012-10-28 07:55:00
4:15 AM,36.9,31.1,80,30.24,10.0,North,5.8,-,N/A,,Clear,350,2012-10-28 08:15:00
4:35 AM,36.3,30.9,81,30.24,10.0,North,5.8,-,N/A,,Clear,360,2012-10-28 08:35:00
4:55 AM,36.0,30.7,81,30.24,10.0,North,5.8,-,N/A,,Clear,350,2012-10-28 08:55:00
5:15 AM,36.0,30.2,80,30.24,10.0,North,4.6,-,N/A,,Clear,350,2012-10-28 09:15:00
5:35 AM,35.6,29.8,80,30.25,10.0,North,3.5,-,N/A,,Clear,360,2012-10-28 09:35:00
5:55 AM,35.6,29.3,78,30.24,10.0,North,6.9,-,N/A,,Clear,350,2012-10-28 09:55:00
6:15 AM,35.8,28.8,76,30.24,10.0,North,5.8,-,N/A,,Scattered Clouds,350,2012-10-28 10:15:00
6:35 AM,35.8,28.4,75,30.23,10.0,North,6.9,-,N/A,,Scattered Clouds,350,2012-10-28 10:35:00
6:55 AM,36.0,28.2,73,30.23,10.0,NNW,6.9,-,N/A,,Scattered Clouds,340,2012-10-28 10:55:00
7:15 AM,35.8,28.9,76,30.23,10.0,NNW,5.8,-,N/A,,Mostly Cloudy,340,2012-10-28 11:15:00
7:35 AM,35.6,29.3,78,30.23,10.0,NNW,5.8,-,N/A,,Scattered Clouds,340,2012-10-28 11:35:00
7:55 AM,34.7,29.5,81,30.22,10.0,NNW,5.8,-,N/A,,Scattered Clouds,330,2012-10-28 11:55:00
8:15 AM,34.7,30.0,83,30.22,10.0,NNW,5.8,-,N/A,,Scattered Clouds,340,2012-10-28 12:15:00
8:35 AM,34.9,30.7,85,30.23,10.0,NNW,6.9,-,N/A,,Scattered Clouds,340,2012-10-28 12:35:00
8:55 AM,35.8,31.6,85,30.23,10.0,NNW,6.9,-,N/A,,Clear,340,2012-10-28 12:55:00
9:15 AM,35.4,32.0,87,30.23,10.0,NNW,8.1,-,N/A,,Clear,340,2012-10-28 13:15:00
9:35 AM,36.9,32.7,85,30.24,10.0,North,6.9,-,N/A,,Mostly Cloudy,350,2012-10-28 13:35:00
9:55 AM,38.5,33.4,82,30.24,10.0,North,10.4,-,N/A,,Overcast,10,2012-10-28 13:55:00
10:15 AM,39.6,34.3,82,30.24,10.0,North,9.2,-,N/A,,Overcast,10,2012-10-28 14:15:00
10:34 AM,41.2,35.2,79,30.24,10.0,North,10.4,-,N/A,,Overcast,10,2012-10-28 14:34:00
10:55 AM,41.9,35.4,78,30.24,10.0,North,10.4,-,N/A,,Overcast,10,2012-10-28 14:55:00
11:15 AM,43.0,36.9,79,30.24,10.0,North,11.5,20.7,N/A,,Overcast,360,2012-10-28 15:15:00
11:35 AM,42.6,37.6,82,30.23,10.0,North,11.5,-,N/A,,Overcast,360,2012-10-28 15:35:00
11:55 AM,43.2,36.5,77,30.22,10.0,North,11.5,18.4,N/A,,Overcast,350,2012-10-28 15:55:00
12:15 PM,43.9,36.9,76,30.21,10.0,North,11.5,16.1,N/A,,Overcast,360,2012-10-28 16:15:00
12:35 PM,45.7,37.2,72,30.21,10.0,North,15.0,21.9,N/A,,Overcast,360,2012-10-28 16:35:00
12:55 PM,45.1,37.2,74,30.21,10.0,North,11.5,18.4,N/A,,Overcast,10,2012-10-28 16:55:00
1:15 PM,46.4,36.1,67,30.19,10.0,NNE,12.7,23.0,N/A,,Overcast,20,2012-10-28 17:15:00
1:35 PM,46.8,34.3,62,30.19,10.0,NNE,15.0,21.9,N/A,,Overcast,30,2012-10-28 17:35:00
1:55 PM,46.4,34.7,64,30.18,10.0,NNE,19.6,25.3,N/A,,Overcast,20,2012-10-28 17:55:00
2:15 PM,46.8,30.6,53,30.17,10.0,NNE,19.6,23.0,N/A,,Overcast,20,2012-10-28 18:15:00
2:35 PM,46.8,32.5,58,30.17,10.0,NNE,17.3,26.5,N/A,,Overcast,20,2012-10-28 18:35:00
2:55 PM,46.4,32.5,59,30.17,10.0,North,16.1,25.3,N/A,,Overcast,10,2012-10-28 18:55:00
3:14 PM,45.7,33.1,61,30.18,10.0,North,12.7,27.6,N/A,,Overcast,10,2012-10-28 19:14:00
3:35 PM,45.7,32.9,61,30.17,10.0,NNE,15.0,20.7,N/A,,Overcast,20,2012-10-28 19:35:00
3:55 PM,45.1,32.7,62,30.17,10.0,North,18.4,26.5,N/A,,Overcast,10,2012-10-28 19:55:00
4:15 PM,44.8,33.8,65,30.18,10.0,North,17.3,21.9,N/A,,Overcast,10,2012-10-28 20:15:00
4:35 PM,44.1,32.9,65,30.18,10.0,North,16.1,25.3,N/A,,Overcast,10,2012-10-28 20:35:00
4:55 PM,42.8,34.3,72,30.18,10.0,NNE,12.7,23.0,N/A,,Overcast,30,2012-10-28 20:55:00
5:15 PM,43.9,33.8,68,30.18,10.0,NNE,10.4,16.1,N/A,,Mostly Cloudy,20,2012-10-28 21:15:00
5:35 PM,44.2,32.0,62,30.17,10.0,NNE,12.7,21.9,N/A,,Overcast,20,2012-10-28 21:35:00
5:55 PM,43.7,32.0,63,30.17,10.0,NNE,11.5,17.3,N/A,,Scattered Clouds,20,2012-10-28 21:55:00
6:15 PM,43.3,30.6,61,30.18,10.0,North,12.7,18.4,N/A,,Clear,10,2012-10-28 22:15:00
6:35 PM,42.8,29.5,59,30.19,10.0,NNE,9.2,16.1,N/A,,Clear,20,2012-10-28 22:35:00
6:55 PM,42.8,28.2,56,30.19,10.0,NNE,10.4,-,N/A,,Clear,20,2012-10-28 22:55:00
7:15 PM,43.0,27.5,54,30.19,10.0,NNE,8.1,11.5,N/A,,Scattered Clouds,20,2012-10-28 23:15:00
7:35 PM,43.0,26.6,52,30.18,10.0,North,10.4,16.1,N/A,,Mostly Cloudy,10,2012-10-28 23:35:00
7:54 PM,42.8,27.5,55,30.18,10.0,North,10.4,16.1,N/A,,Mostly Cloudy,360,2012-10-28 23:54:00
8:15 PM,42.8,27.9,56,30.18,10.0,North,8.1,-,N/A,,Overcast,360,2012-10-29 00:15:00
8:35 PM,43.0,27.5,54,30.18,10.0,North,12.7,-,N/A,,Overcast,360,2012-10-29 00:35:00
9:15 PM,42.4,25.7,52,30.18,10.0,North,12.7,16.1,N/A,,Overcast,360,2012-10-29 01:15:00
9:35 PM,42.3,25.0,50,30.18,10.0,North,12.7,24.2,N/A,,Overcast,350,2012-10-29 01:35:00
9:55 PM,41.9,25.0,51,30.18,10.0,North,8.1,19.6,N/A,,Overcast,350,2012-10-29 01:55:00
10:15 PM,41.9,25.3,52,30.17,10.0,North,11.5,19.6,N/A,,Overcast,350,2012-10-29 02:15:00
10:35 PM,41.9,25.5,52,30.17,10.0,North,11.5,16.1,N/A,,Overcast,350,2012-10-29 02:35:00
10:55 PM,41.9,25.5,52,30.17,10.0,North,9.2,16.1,N/A,,Mostly Cloudy,350,2012-10-29 02:55:00
11:15 PM,41.4,25.7,54,30.17,10.0,NNW,6.9,-,N/A,,Scattered Clouds,340,2012-10-29 03:15:00
11:35 PM,41.2,26.2,55,30.16,10.0,North,11.5,17.3,N/A,,Clear,350,2012-10-29 03:35:00
11:55 PM,41.2,26.4,56,30.16,10.0,NNW,9.2,-,N/A,,Clear,340,2012-10-29 03:55:00